| time (UTC) | temp C | wind direction | speed KPH | gust KPH | rain 1hr cm | rain 24hr cm | rain mn cm | humidity % | barometer mb |
| 20260506224335 | 23 | 344 | 4.8 | 6.4 | 0.00 | 0.00 | 0.00 | 67 | 1026.2 |
| 20260506223831 | 24 | 5 | 8.0 | 9.7 | 0.00 | 0.00 | 0.00 | 66 | 1026.2 |
| 20260506223326 | 24 | 27 | 8.0 | 11.3 | 0.00 | 0.00 | 0.00 | 66 | 1025.9 |
| 20260506222824 | 24 | 330 | 9.7 | 12.9 | 0.00 | 0.00 | 0.00 | 67 | 1025.8 |
| 20260506222319 | 25 | 334 | 8.0 | 11.3 | 0.00 | 0.00 | 0.00 | 66 | 1025.7 |
| 20260506221813 | 25 | 27 | 6.4 | 12.9 | 0.00 | 0.00 | 0.00 | 65 | 1025.7 |
| 20260506221310 | 25 | 340 | 6.4 | 9.7 | 0.00 | 0.00 | 0.00 | 65 | 1025.8 |
| 20260506220808 | 25 | 346 | 4.8 | 6.4 | 0.00 | 0.00 | 0.00 | 66 | 1025.6 |
| 20260506220307 | 25 | 355 | 6.4 | 9.7 | 0.00 | 0.00 | 0.00 | 66 | 1025.7 |
| 20260506215804 | 26 | 346 | 9.7 | 14.5 | 0.00 | 0.00 | 0.00 | 66 | 1025.9 |
| 20260506215300 | 26 | 69 | 6.4 | 9.7 | 0.00 | 0.00 | 0.00 | 64 | 1025.7 |
| 20260506214756 | 27 | 2 | 6.4 | 12.9 | 0.00 | 0.00 | 0.00 | 64 | 1025.4 |
| 20260506214253 | 27 | 28 | 8.0 | 11.3 | 0.00 | 0.00 | 0.00 | 63 | 1025.6 |
| 20260506213752 | 27 | 79 | 1.6 | 9.7 | 0.00 | 0.00 | 0.00 | 63 | 1025.4 |
| 20260506213248 | 28 | 32 | 3.2 | 9.7 | 0.00 | 0.00 | 0.00 | 64 | 1025.5 |
| 20260506212746 | 27 | 16 | 6.4 | 9.7 | 0.00 | 0.00 | 0.00 | 65 | 1025.3 |
| 20260506212241 | 28 | 33 | 6.4 | 12.9 | 0.00 | 0.00 | 0.00 | 64 | 1025.3 |
| 20260506211737 | 28 | 59 | 3.2 | 9.7 | 0.00 | 0.00 | 0.00 | 63 | 1025.4 |
| 20260506211234 | 28 | 304 | 4.8 | 9.7 | 0.00 | 0.00 | 0.00 | 64 | 1025.3 |
| 20260506210731 | 28 | 43 | 4.8 | 9.7 | 0.00 | 0.00 | 0.00 | 64 | 1025.4 |
| 20260506210227 | 28 | 36 | 3.2 | 12.9 | 0.00 | 0.00 | 0.00 | 63 | 1025.4 |
| 20260506205724 | 30 | 39 | 1.6 | 9.7 | 0.00 | 0.00 | 0.00 | 61 | 1025.5 |
| 20260506205220 | 30 | 86 | 3.2 | 6.4 | 0.00 | 0.00 | 0.00 | 61 | 1025.5 |
| 20260506204717 | 30 | 332 | 3.2 | 9.7 | 0.00 | 0.00 | 0.00 | 62 | 1025.4 |
| 20260506204214 | 30 | 79 | 6.4 | 6.4 | 0.00 | 0.00 | 0.00 | 63 | 1025.3 |
| 20260506203712 | 30 | 62 | 4.8 | 12.9 | 0.00 | 0.00 | 0.00 | 64 | 1025.6 |
| 20260506203209 | 30 | 346 | 3.2 | 9.7 | 0.00 | 0.00 | 0.00 | 63 | 1025.6 |
| 20260506202707 | 30 | 54 | 3.2 | 14.5 | 0.00 | 0.00 | 0.00 | 63 | 1025.7 |
| 20260506202203 | 30 | 168 | 3.2 | 6.4 | 0.00 | 0.00 | 0.00 | 64 | 1025.7 |
| 20260506201700 | 31 | 340 | 3.2 | 6.4 | 0.00 | 0.00 | 0.00 | 62 | 1025.6 |
| 20260506201156 | 31 | 56 | 3.2 | 6.4 | 0.00 | 0.00 | 0.00 | 62 | 1025.7 |
| 20260506200653 | 30 | 182 | 4.8 | 12.9 | 0.00 | 0.00 | 0.00 | 62 | 1025.6 |
| 20260506200149 | 30 | 53 | 1.6 | 11.3 | 0.00 | 0.00 | 0.00 | 63 | 1025.6 |
| 20260506195646 | 30 | 13 | 3.2 | 4.8 | 0.00 | 0.00 | 0.00 | 63 | 1025.6 |
| 20260506195143 | 30 | 58 | 1.6 | 9.7 | 0.00 | 0.00 | 0.00 | 64 | 1025.6 |
| 20260506194640 | 30 | 90 | 1.6 | 9.7 | 0.00 | 0.00 | 0.00 | 65 | 1025.6 |
| 20260506194136 | 29 | 33 | 3.2 | 9.7 | 0.00 | 0.00 | 0.00 | 65 | 1025.7 |
| 20260506193634 | 30 | 29 | 6.4 | 6.4 | 0.00 | 0.00 | 0.00 | 64 | 1025.7 |
| 20260506193131 | 29 | 121 | 3.2 | 6.4 | 0.00 | 0.00 | 0.00 | 66 | 1025.7 |
| 20260506192628 | 29 | 49 | 6.4 | 9.7 | 0.00 | 0.00 | 0.00 | 65 | 1025.7 |
| 20260506192124 | 29 | 67 | 1.6 | 3.2 | 0.00 | 0.00 | 0.00 | 67 | 1025.7 |
| 20260506191621 | 30 | 22 | 4.8 | 6.4 | 0.00 | 0.00 | 0.00 | 63 | 1025.9 |
| 20260506191117 | 30 | 54 | 3.2 | 4.8 | 0.00 | 0.00 | 0.00 | 64 | 1025.7 |
| 20260506190615 | 29 | 38 | 3.2 | 4.8 | 0.00 | 0.00 | 0.00 | 66 | 1025.8 |
| 20260506190111 | 28 | 58 | 4.8 | 6.4 | 0.00 | 0.00 | 0.00 | 67 | 1026.0 |
| 20260506185608 | 28 | 59 | 3.2 | 6.4 | 0.00 | 0.00 | 0.00 | 67 | 1026.0 |
| 20260506185104 | 28 | 358 | 3.2 | 4.8 | 0.00 | 0.00 | 0.00 | 67 | 1025.9 |
| 20260506184602 | 28 | 80 | 0.0 | 4.8 | 0.00 | 0.00 | 0.00 | 67 | 1026.1 |
| 20260506184059 | 28 | 36 | 3.2 | 6.4 | 0.00 | 0.00 | 0.00 | 66 | 1026.0 |
| 20260506183555 | 28 | 19 | 3.2 | 4.8 | 0.00 | 0.00 | 0.00 | 67 | 1026.2 |
| 20260506183052 | 28 | 88 | 3.2 | 11.3 | 0.00 | 0.00 | 0.00 | 68 | 1026.1 |
| 20260506182549 | 28 | 64 | 1.6 | 4.8 | 0.00 | 0.00 | 0.00 | 69 | 1026.0 |
| 20260506182046 | 28 | 59 | 4.8 | 9.7 | 0.00 | 0.00 | 0.00 | 69 | 1026.0 |
| 20260506181544 | 27 | 128 | 4.8 | 6.4 | 0.00 | 0.00 | 0.00 | 71 | 1026.1 |
| 20260506181041 | 27 | 109 | 3.2 | 9.7 | 0.00 | 0.00 | 0.00 | 72 | 1026.0 |
| 20260506180537 | 27 | 101 | 3.2 | 6.4 | 0.00 | 0.00 | 0.00 | 71 | 1026.2 |
| 20260506180034 | 29 | 72 | 0.0 | 4.8 | 0.00 | 0.00 | 0.00 | 67 | 1026.2 |
| 20260506175531 | 29 | 58 | 0.0 | 3.2 | 0.00 | 0.00 | 0.00 | 68 | 1026.3 |
| 20260506175027 | 29 | 106 | 3.2 | 4.8 | 0.00 | 0.00 | 0.00 | 67 | 1026.3 |
| 20260506174526 | 29 | 79 | 3.2 | 4.8 | 0.00 | 0.00 | 0.00 | 69 | 1026.3 |
| 20260506174021 | 29 | 32 | 3.2 | 6.4 | 0.00 | 0.00 | 0.00 | 69 | 1026.5 |
| 20260506173519 | 30 | 91 | 6.4 | 9.7 | 0.00 | 0.00 | 0.00 | 67 | 1026.6 |
| 20260506173016 | 30 | 39 | 3.2 | 6.4 | 0.00 | 0.00 | 0.00 | 67 | 1026.5 |
| 20260506172514 | 30 | 38 | 1.6 | 9.7 | 0.00 | 0.00 | 0.00 | 66 | 1026.7 |
| 20260506172009 | 29 | 138 | 3.2 | 6.4 | 0.00 | 0.00 | 0.00 | 69 | 1026.5 |
| 20260506171508 | 28 | 63 | 1.6 | 3.2 | 0.00 | 0.00 | 0.00 | 72 | 1026.5 |
| 20260506171005 | 28 | 55 | 1.6 | 6.4 | 0.00 | 0.00 | 0.00 | 75 | 1026.6 |
| 20260506170502 | 27 | 51 | 1.6 | 1.6 | 0.00 | 0.00 | 0.00 | 76 | 1026.7 |
| 20260506165959 | 28 | 105 | 3.2 | 4.8 | 0.00 | 0.00 | 0.00 | 75 | 1026.6 |
| 20260506165458 | 27 | 105 | 3.2 | 4.8 | 0.00 | 0.00 | 0.00 | 77 | 1026.5 |
| 20260506164953 | 27 | 34 | 4.8 | 6.4 | 0.00 | 0.00 | 0.00 | 77 | 1026.7 |
| 20260506164450 | 27 | 65 | 0.0 | 4.8 | 0.00 | 0.00 | 0.00 | 79 | 1026.7 |
| 20260506163948 | 27 | 68 | 1.6 | 6.4 | 0.00 | 0.00 | 0.00 | 78 | 1027.0 |
| 20260506163443 | 27 | 62 | 3.2 | 6.4 | 0.00 | 0.00 | 0.00 | 80 | 1027.0 |
| 20260506162938 | 26 | 36 | 1.6 | 4.8 | 0.00 | 0.00 | 0.00 | 81 | 1026.9 |
| 20260506162436 | 25 | 95 | 1.6 | 4.8 | 0.00 | 0.00 | 0.00 | 85 | 1027.1 |
| 20260506161933 | 25 | 43 | 3.2 | 4.8 | 0.00 | 0.00 | 0.00 | 85 | 1027.1 |
| 20260506161431 | 25 | 48 | 3.2 | 4.8 | 0.00 | 0.00 | 0.00 | 86 | 1027.1 |
| 20260506160928 | 25 | 67 | 1.6 | 3.2 | 0.00 | 0.00 | 0.00 | 87 | 1027.2 |
| 20260506160426 | 25 | 55 | 1.6 | 1.6 | 0.00 | 0.00 | 0.00 | 88 | 1026.9 |
| 20260506155923 | 25 | 34 | 1.6 | 3.2 | 0.00 | 0.00 | 0.00 | 88 | 1026.9 |
| 20260506155421 | 25 | 59 | 0.0 | 3.2 | 0.00 | 0.00 | 0.00 | 88 | 1026.8 |
| 20260506153542 | 25 | 58 | 1.6 | 3.2 | 0.00 | 0.00 | 0.00 | 89 | 1026.5 |
| 20260506153039 | 24 | 58 | 0.0 | 1.6 | 0.00 | 0.00 | 0.00 | 89 | 1026.3 |
| 20260506152536 | 24 | 51 | 0.0 | 1.6 | 0.00 | 0.00 | 0.00 | 89 | 1026.1 |
| 20260506152034 | 24 | 61 | 1.6 | 3.2 | 0.00 | 0.00 | 0.00 | 90 | 1026.1 |
| 20260506151532 | 24 | 42 | 0.0 | 1.6 | 0.00 | 0.00 | 0.00 | 90 | 1025.9 |
| 20260506151029 | 24 | 60 | 0.0 | 0.0 | 0.00 | 0.00 | 0.00 | 90 | 1026.0 |
| 20260506150525 | 24 | 88 | 1.6 | 3.2 | 0.00 | 0.00 | 0.00 | 90 | 1026.2 |
| 20260506150022 | 24 | 58 | 0.0 | 1.6 | 0.00 | 0.00 | 0.00 | 91 | 1025.9 |
| 20260506145519 | 23 | 38 | 1.6 | 3.2 | 0.00 | 0.00 | 0.00 | 91 | 1025.9 |
| 20260506145017 | 23 | 77 | 0.0 | 3.2 | 0.00 | 0.00 | 0.00 | 91 | 1025.9 |
| 20260506144513 | 23 | 60 | 0.0 | 0.0 | 0.00 | 0.00 | 0.00 | 91 | 1025.8 |
| 20260506144011 | 23 | 55 | 0.0 | 1.6 | 0.00 | 0.00 | 0.00 | 91 | 1025.9 |
| 20260506143508 | 23 | 36 | 1.6 | 3.2 | 0.00 | 0.00 | 0.00 | 91 | 1025.9 |
| 20260506143007 | 23 | 55 | 1.6 | 1.6 | 0.00 | 0.00 | 0.00 | 91 | 1025.9 |
| 20260506142504 | 23 | 58 | 0.0 | 1.6 | 0.00 | 0.00 | 0.00 | 91 | 1025.9 |
| 20260506142002 | 23 | 80 | 1.6 | 1.6 | 0.00 | 0.00 | 0.00 | 90 | 1025.6 |
| 20260506141459 | 23 | 76 | 0.0 | 1.6 | 0.00 | 0.00 | 0.00 | 90 | 1025.4 |
| 20260506140958 | 23 | 71 | 0.0 | 1.6 | 0.00 | 0.00 | 0.00 | 91 | 1025.3 |
| 20260506140454 | 23 | 73 | 3.2 | 4.8 | 0.00 | 0.00 | 0.00 | 90 | 1025.4 |
| 20260506135951 | 23 | 40 | 1.6 | 1.6 | 0.00 | 0.00 | 0.00 | 90 | 1025.4 |
| 20260506135448 | 23 | 55 | 0.0 | 1.6 | 0.00 | 0.00 | 0.00 | 90 | 1025.2 |
| 20260506134944 | 23 | 67 | 1.6 | 4.8 | 0.00 | 0.00 | 0.00 | 90 | 1025.1 |
| 20260506134440 | 23 | 61 | 0.0 | 3.2 | 0.00 | 0.00 | 0.00 | 89 | 1024.8 |
| 20260506133937 | 23 | 75 | 3.2 | 6.4 | 0.00 | 0.00 | 0.00 | 89 | 1024.8 |
| 20260506133434 | 23 | 69 | 1.6 | 3.2 | 0.00 | 0.00 | 0.00 | 89 | 1024.8 |
| 20260506132931 | 23 | 138 | 1.6 | 3.2 | 0.00 | 0.00 | 0.00 | 89 | 1024.6 |
| 20260506132428 | 24 | 77 | 3.2 | 4.8 | 0.00 | 0.00 | 0.00 | 89 | 1024.8 |
| 20260506131926 | 24 | 95 | 0.0 | 3.2 | 0.00 | 0.00 | 0.00 | 88 | 1024.7 |
| 20260506131422 | 24 | 3 | 1.6 | 1.6 | 0.00 | 0.00 | 0.00 | 88 | 1024.8 |
| 20260506130919 | 24 | 80 | 1.6 | 1.6 | 0.00 | 0.00 | 0.00 | 89 | 1024.7 |
| 20260506130415 | 24 | 71 | 0.0 | 1.6 | 0.00 | 0.00 | 0.00 | 89 | 1024.6 |
| 20260506125914 | 23 | 93 | 1.6 | 4.8 | 0.00 | 0.00 | 0.00 | 89 | 1024.6 |
| 20260506125412 | 23 | 81 | 1.6 | 4.8 | 0.00 | 0.00 | 0.00 | 90 | 1024.6 |
| 20260506124910 | 23 | 354 | 4.8 | 6.4 | 0.00 | 0.00 | 0.00 | 89 | 1024.6 |
| 20260506124407 | 23 | 60 | 1.6 | 3.2 | 0.00 | 0.00 | 0.00 | 90 | 1024.7 |
| 20260506123904 | 23 | 45 | 1.6 | 3.2 | 0.00 | 0.00 | 0.00 | 90 | 1024.8 |
| 20260506123402 | 23 | 76 | 0.0 | 0.0 | 0.00 | 0.00 | 0.00 | 90 | 1024.8 |
| 20260506122859 | 23 | 79 | 0.0 | 3.2 | 0.00 | 0.00 | 0.00 | 90 | 1024.6 |
| 20260506122356 | 23 | 182 | 1.6 | 3.2 | 0.00 | 0.00 | 0.00 | 90 | 1024.7 |
| 20260506121855 | 23 | 84 | 0.0 | 1.6 | 0.00 | 0.00 | 0.00 | 90 | 1024.5 |
| 20260506121351 | 23 | 208 | 0.0 | 3.2 | 0.00 | 0.00 | 0.00 | 90 | 1024.6 |
| 20260506120848 | 23 | 136 | 0.0 | 1.6 | 0.00 | 0.00 | 0.00 | 90 | 1024.5 |
| 20260506120346 | 23 | 40 | 1.6 | 1.6 | 0.00 | 0.00 | 0.00 | 90 | 1024.4 |
| 20260506115843 | 23 | 150 | 1.6 | 3.2 | 0.00 | 0.00 | 0.00 | 90 | 1024.4 |
| 20260506115341 | 23 | 67 | 0.0 | 1.6 | 0.00 | 0.00 | 0.00 | 90 | 1024.4 |
| 20260506114839 | 23 | 62 | 0.0 | 4.8 | 0.00 | 0.00 | 0.00 | 90 | 1024.3 |
| 20260506114336 | 23 | 207 | 3.2 | 3.2 | 0.00 | 0.00 | 0.00 | 90 | 1024.4 |
| 20260506113835 | 23 | 180 | 1.6 | 3.2 | 0.00 | 0.00 | 0.00 | 90 | 1024.3 |
| 20260506113332 | 23 | 95 | 1.6 | 3.2 | 0.00 | 0.00 | 0.00 | 90 | 1024.3 |
| 20260506112828 | 23 | 65 | 0.0 | 3.2 | 0.00 | 0.00 | 0.00 | 90 | 1024.3 |
| 20260506112326 | 23 | 78 | 1.6 | 3.2 | 0.00 | 0.00 | 0.00 | 90 | 1024.3 |
| 20260506111823 | 23 | 81 | 0.0 | 1.6 | 0.00 | 0.00 | 0.00 | 90 | 1024.3 |
| 20260506111321 | 23 | 44 | 0.0 | 1.6 | 0.00 | 0.00 | 0.00 | 90 | 1024.3 |
| 20260506110818 | 23 | 87 | 0.0 | 3.2 | 0.00 | 0.00 | 0.00 | 90 | 1024.3 |
| 20260506110315 | 23 | 84 | 0.0 | 0.0 | 0.00 | 0.00 | 0.00 | 90 | 1024.1 |
| 20260506105812 | 23 | 49 | 0.0 | 1.6 | 0.00 | 0.00 | 0.00 | 90 | 1024.0 |
| 20260506105309 | 23 | 64 | 1.6 | 3.2 | 0.00 | 0.00 | 0.00 | 90 | 1024.0 |
| 20260506104806 | 23 | 154 | 1.6 | 3.2 | 0.00 | 0.00 | 0.00 | 89 | 1024.1 |
| 20260506104304 | 23 | 44 | 1.6 | 1.6 | 0.00 | 0.00 | 0.00 | 89 | 1024.1 |
| 20260506103801 | 23 | 58 | 0.0 | 3.2 | 0.00 | 0.00 | 0.00 | 89 | 1024.0 |
| 20260506103259 | 23 | 72 | 1.6 | 3.2 | 0.00 | 0.00 | 0.00 | 89 | 1024.0 |
| 20260506102756 | 23 | 74 | 0.0 | 3.2 | 0.00 | 0.00 | 0.00 | 89 | 1024.3 |
| 20260506102254 | 23 | 83 | 1.6 | 1.6 | 0.00 | 0.00 | 0.00 | 89 | 1024.3 |
| 20260506101751 | 23 | 72 | 0.0 | 1.6 | 0.00 | 0.00 | 0.00 | 89 | 1024.0 |
| 20260506101247 | 23 | 185 | 0.0 | 3.2 | 0.00 | 0.00 | 0.00 | 89 | 1023.9 |
| 20260506100745 | 23 | 62 | 0.0 | 3.2 | 0.00 | 0.00 | 0.00 | 89 | 1024.0 |
| 20260506100243 | 23 | 58 | 0.0 | 0.0 | 0.00 | 0.00 | 0.00 | 89 | 1024.0 |
| 20260506095741 | 23 | 52 | 0.0 | 4.8 | 0.00 | 0.00 | 0.00 | 89 | 1023.9 |
| 20260506095238 | 23 | 148 | 3.2 | 6.4 | 0.00 | 0.00 | 0.00 | 89 | 1023.9 |
| 20260506094734 | 23 | 64 | 0.0 | 4.8 | 0.00 | 0.00 | 0.00 | 89 | 1023.8 |
| 20260506094233 | 23 | 124 | 1.6 | 3.2 | 0.00 | 0.00 | 0.00 | 89 | 1023.8 |
| 20260506093731 | 23 | 160 | 1.6 | 3.2 | 0.00 | 0.00 | 0.00 | 88 | 1023.7 |
| 20260506093228 | 23 | 156 | 0.0 | 4.8 | 0.00 | 0.00 | 0.00 | 88 | 1023.7 |
| 20260506092726 | 24 | 49 | 0.0 | 3.2 | 0.00 | 0.00 | 0.00 | 88 | 1023.6 |
| 20260506092223 | 24 | 94 | 0.0 | 3.2 | 0.00 | 0.00 | 0.00 | 88 | 1023.5 |
| 20260506091720 | 24 | 13 | 1.6 | 3.2 | 0.00 | 0.00 | 0.00 | 88 | 1023.4 |
| 20260506091218 | 24 | 203 | 1.6 | 6.4 | 0.00 | 0.00 | 0.00 | 88 | 1023.5 |
| 20260506090715 | 24 | 269 | 3.2 | 6.4 | 0.00 | 0.00 | 0.00 | 87 | 1023.7 |
| 20260506090212 | 24 | 132 | 1.6 | 3.2 | 0.00 | 0.00 | 0.00 | 87 | 1023.7 |
| 20260506085709 | 24 | 99 | 1.6 | 3.2 | 0.00 | 0.00 | 0.00 | 87 | 1023.9 |
| 20260506085205 | 24 | 201 | 1.6 | 4.8 | 0.00 | 0.00 | 0.00 | 87 | 1023.9 |
| 20260506084702 | 24 | 93 | 0.0 | 1.6 | 0.00 | 0.00 | 0.00 | 87 | 1023.9 |
| 20260506084158 | 24 | 195 | 1.6 | 4.8 | 0.00 | 0.00 | 0.00 | 87 | 1023.9 |
| 20260506083655 | 24 | 30 | 3.2 | 3.2 | 0.00 | 0.00 | 0.00 | 87 | 1023.8 |
| 20260506083153 | 24 | 101 | 1.6 | 3.2 | 0.00 | 0.00 | 0.00 | 87 | 1023.8 |
| 20260506082650 | 24 | 51 | 0.0 | 1.6 | 0.00 | 0.00 | 0.00 | 86 | 1023.8 |
| 20260506082150 | 24 | 71 | 1.6 | 3.2 | 0.00 | 0.00 | 0.00 | 86 | 1023.6 |
| 20260506081649 | 24 | 78 | 0.0 | 3.2 | 0.00 | 0.00 | 0.00 | 86 | 1023.8 |
| 20260506081146 | 24 | 234 | 1.6 | 4.8 | 0.00 | 0.00 | 0.00 | 86 | 1023.6 |
| 20260506080644 | 24 | 103 | 1.6 | 4.8 | 0.00 | 0.00 | 0.00 | 86 | 1023.6 |
| 20260506080140 | 24 | 130 | 1.6 | 3.2 | 0.00 | 0.00 | 0.00 | 86 | 1023.9 |
| 20260506073124 | 24 | 91 | 3.2 | 3.2 | 0.00 | 0.00 | 0.00 | 86 | 1023.9 |
| 20260506072621 | 24 | 129 | 1.6 | 1.6 | 0.00 | 0.00 | 0.00 | 86 | 1024.1 |
| 20260506072119 | 24 | 257 | 3.2 | 4.8 | 0.00 | 0.00 | 0.00 | 86 | 1024.1 |
| 20260506071616 | 24 | 339 | 4.8 | 9.7 | 0.00 | 0.00 | 0.00 | 86 | 1024.0 |
| 20260506071114 | 24 | 48 | 0.0 | 3.2 | 0.00 | 0.00 | 0.00 | 86 | 1024.3 |
| 20260506070611 | 24 | 183 | 0.0 | 1.6 | 0.00 | 0.00 | 0.00 | 86 | 1024.1 |
| 20260506070108 | 24 | 140 | 1.6 | 9.7 | 0.00 | 0.00 | 0.00 | 86 | 1024.4 |
| 20260506062045 | 25 | 114 | 3.2 | 4.8 | 0.00 | 0.00 | 0.00 | 85 | 1024.7 |
| 20260506061541 | 25 | 112 | 1.6 | 4.8 | 0.00 | 0.00 | 0.00 | 85 | 1024.6 |
| 20260506061038 | 25 | 57 | 0.0 | 3.2 | 0.00 | 0.00 | 0.00 | 85 | 1024.5 |
| 20260506060537 | 25 | 205 | 3.2 | 11.3 | 0.00 | 0.00 | 0.00 | 85 | 1024.5 |
| 20260506051006 | 25 | 133 | 3.2 | 3.2 | 0.00 | 0.00 | 0.00 | 84 | 1024.5 |
| 20260506050503 | 25 | 98 | 1.6 | 4.8 | 0.00 | 0.00 | 0.00 | 84 | 1024.3 |
| 20260506044953 | 25 | 31 | 3.2 | 4.8 | 0.00 | 0.00 | 0.00 | 84 | 1024.5 |
| 20260506044452 | 25 | 148 | 0.0 | 9.7 | 0.00 | 0.00 | 0.00 | 84 | 1024.4 |
| 20260506043948 | 25 | 177 | 1.6 | 4.8 | 0.00 | 0.00 | 0.00 | 84 | 1024.6 |
| 20260506043445 | 25 | 74 | 1.6 | 6.4 | 0.00 | 0.00 | 0.00 | 83 | 1024.5 |
| 20260506042943 | 25 | 160 | 3.2 | 3.2 | 0.00 | 0.00 | 0.00 | 83 | 1024.5 |
| 20260506042443 | 25 | 124 | 3.2 | 4.8 | 0.00 | 0.00 | 0.00 | 83 | 1024.4 |
| 20260506041940 | 25 | 359 | 1.6 | 3.2 | 0.00 | 0.00 | 0.00 | 83 | 1024.4 |
| 20260506041438 | 25 | 144 | 4.8 | 6.4 | 0.00 | 0.00 | 0.00 | 83 | 1024.3 |
| 20260506040935 | 25 | 95 | 4.8 | 6.4 | 0.00 | 0.00 | 0.00 | 83 | 1024.3 |
| 20260506040432 | 25 | 142 | 3.2 | 4.8 | 0.00 | 0.00 | 0.00 | 83 | 1024.0 |
| 20260506035928 | 25 | 49 | 3.2 | 6.4 | 0.00 | 0.00 | 0.00 | 83 | 1023.9 |
| 20260506035426 | 25 | 345 | 1.6 | 3.2 | 0.00 | 0.00 | 0.00 | 83 | 1024.1 |
| 20260506034922 | 25 | 83 | 3.2 | 9.7 | 0.00 | 0.00 | 0.00 | 83 | 1024.1 |
| 20260506034420 | 25 | 110 | 3.2 | 4.8 | 0.00 | 0.00 | 0.00 | 83 | 1024.0 |
| 20260506033916 | 25 | 11 | 3.2 | 3.2 | 0.00 | 0.00 | 0.00 | 83 | 1023.8 |
| 20260506033414 | 25 | 75 | 1.6 | 3.2 | 0.00 | 0.00 | 0.00 | 83 | 1023.6 |
| 20260506032910 | 25 | 71 | 0.0 | 4.8 | 0.00 | 0.00 | 0.00 | 83 | 1023.6 |
| 20260506032408 | 25 | 156 | 1.6 | 6.4 | 0.00 | 0.00 | 0.00 | 83 | 1023.6 |
| 20260506031904 | 25 | 139 | 1.6 | 9.7 | 0.00 | 0.00 | 0.00 | 83 | 1023.5 |
| 20260506031401 | 25 | 164 | 3.2 | 4.8 | 0.00 | 0.00 | 0.00 | 82 | 1023.5 |
| 20260506030859 | 25 | 146 | 1.6 | 11.3 | 0.00 | 0.00 | 0.00 | 82 | 1023.4 |
| 20260506030357 | 25 | 184 | 1.6 | 4.8 | 0.00 | 0.00 | 0.00 | 82 | 1023.3 |
| 20260506025853 | 26 | 76 | 1.6 | 3.2 | 0.00 | 0.00 | 0.00 | 81 | 1023.2 |
| 20260506025350 | 26 | 78 | 1.6 | 3.2 | 0.00 | 0.00 | 0.00 | 81 | 1023.2 |
| 20260506024847 | 26 | 48 | 3.2 | 3.2 | 0.00 | 0.00 | 0.00 | 81 | 1023.1 |
| 20260506024344 | 26 | 49 | 3.2 | 4.8 | 0.00 | 0.00 | 0.00 | 81 | 1023.0 |
| 20260506023840 | 26 | 21 | 1.6 | 3.2 | 0.00 | 0.00 | 0.00 | 80 | 1022.9 |
| 20260506023337 | 26 | 80 | 3.2 | 4.8 | 0.00 | 0.00 | 0.00 | 80 | 1022.7 |
| 20260506022834 | 26 | 88 | 1.6 | 4.8 | 0.00 | 0.00 | 0.00 | 79 | 1022.8 |
| 20260506022332 | 26 | 99 | 0.0 | 4.8 | 0.00 | 0.00 | 0.00 | 79 | 1022.9 |
| 20260506021830 | 26 | 169 | 1.6 | 1.6 | 0.00 | 0.00 | 0.00 | 78 | 1022.7 |
| 20260506021326 | 27 | 162 | 1.6 | 3.2 | 0.00 | 0.00 | 0.00 | 78 | 1022.4 |
| 20260506020822 | 27 | 93 | 3.2 | 6.4 | 0.00 | 0.00 | 0.00 | 77 | 1022.4 |
| 20260506020321 | 27 | 83 | 4.8 | 6.4 | 0.00 | 0.00 | 0.00 | 77 | 1022.5 |
| 20260506015818 | 27 | 83 | 3.2 | 4.8 | 0.00 | 0.00 | 0.00 | 76 | 1022.3 |
| 20260506015315 | 27 | 49 | 1.6 | 3.2 | 0.00 | 0.00 | 0.00 | 76 | 1022.3 |
| 20260506014812 | 27 | 358 | 1.6 | 4.8 | 0.00 | 0.00 | 0.00 | 75 | 1022.3 |
| 20260506014309 | 27 | 161 | 3.2 | 4.8 | 0.00 | 0.00 | 0.00 | 74 | 1022.4 |
| 20260506013806 | 28 | 91 | 1.6 | 4.8 | 0.00 | 0.00 | 0.00 | 73 | 1022.1 |
| 20260506013303 | 28 | 323 | 3.2 | 9.7 | 0.00 | 0.00 | 0.00 | 71 | 1022.0 |
| 20260506012759 | 28 | 94 | 3.2 | 4.8 | 0.00 | 0.00 | 0.00 | 71 | 1022.1 |
| 20260506012256 | 28 | 24 | 1.6 | 3.2 | 0.00 | 0.00 | 0.00 | 70 | 1022.0 |
| 20260506011754 | 28 | 218 | 1.6 | 4.8 | 0.00 | 0.00 | 0.00 | 69 | 1022.0 |
| 20260506011250 | 28 | 69 | 1.6 | 1.6 | 0.00 | 0.00 | 0.00 | 68 | 1022.0 |
| 20260506010748 | 28 | 54 | 0.0 | 1.6 | 0.00 | 0.00 | 0.00 | 68 | 1021.9 |
| 20260506010245 | 29 | 72 | 0.0 | 6.4 | 0.00 | 0.00 | 0.00 | 67 | 1021.8 |
| 20260506005742 | 29 | 77 | 0.0 | 3.2 | 0.00 | 0.00 | 0.00 | 67 | 1021.7 |
| 20260506005239 | 29 | 49 | 0.0 | 1.6 | 0.00 | 0.00 | 0.00 | 67 | 1021.7 |
| 20260506004735 | 29 | 57 | 0.0 | 3.2 | 0.00 | 0.00 | 0.00 | 66 | 1021.8 |
| 20260506004233 | 29 | 80 | 1.6 | 1.6 | 0.00 | 0.00 | 0.00 | 66 | 1021.8 |
| 20260506003728 | 29 | 173 | 3.2 | 3.2 | 0.00 | 0.00 | 0.00 | 66 | 1021.7 |
| 20260506003225 | 30 | 69 | 0.0 | 1.6 | 0.00 | 0.00 | 0.00 | 66 | 1021.6 |
| 20260506002721 | 30 | 101 | 1.6 | 4.8 | 0.00 | 0.00 | 0.00 | 65 | 1021.6 |
| 20260506002217 | 30 | 100 | 1.6 | 1.6 | 0.00 | 0.00 | 0.00 | 65 | 1021.5 |
| 20260506001713 | 30 | 88 | 0.0 | 3.2 | 0.00 | 0.00 | 0.00 | 65 | 1021.5 |
| 20260506001211 | 30 | 68 | 0.0 | 1.6 | 0.00 | 0.00 | 0.00 | 65 | 1021.5 |
| 20260506000708 | 30 | 102 | 1.6 | 4.8 | 0.00 | 0.00 | 0.00 | 64 | 1021.5 |
| 20260506000205 | 30 | 31 | 1.6 | 3.2 | 0.00 | 0.00 | 0.00 | 64 | 1021.4 |
| 20260505235703 | 30 | 114 | 1.6 | 4.8 | 0.00 | 0.00 | 0.00 | 64 | 1021.5 |
| 20260505235200 | 30 | 68 | 1.6 | 1.6 | 0.00 | 0.00 | 0.00 | 63 | 1021.3 |
| 20260505234657 | 30 | 70 | 0.0 | 3.2 | 0.00 | 0.00 | 0.00 | 63 | 1021.4 |
| 20260505234154 | 30 | 67 | 1.6 | 4.8 | 0.00 | 0.00 | 0.00 | 63 | 1021.2 |
| 20260505233650 | 30 | 137 | 3.2 | 9.7 | 0.00 | 0.00 | 0.00 | 64 | 1021.3 |
| 20260505233148 | 30 | 163 | 3.2 | 9.7 | 0.00 | 0.00 | 0.00 | 63 | 1021.2 |
| 20260505232646 | 30 | 242 | 3.2 | 16.1 | 0.00 | 0.00 | 0.00 | 62 | 1021.1 |
| 20260505232143 | 31 | 155 | 3.2 | 6.4 | 0.00 | 0.00 | 0.00 | 61 | 1021.2 |
| 20260505231639 | 31 | 50 | 1.6 | 3.2 | 0.00 | 0.00 | 0.00 | 62 | 1021.1 |
| 20260505231139 | 31 | 59 | 3.2 | 11.3 | 0.00 | 0.00 | 0.00 | 61 | 1021.1 |
| 20260505230636 | 31 | 47 | 1.6 | 4.8 | 0.00 | 0.00 | 0.00 | 61 | 1021.2 |
| 20260505230132 | 32 | 164 | 3.2 | 9.7 | 0.00 | 0.00 | 0.00 | 59 | 1021.2 |
| 20260505225629 | 32 | 127 | 4.8 | 6.4 | 0.00 | 0.00 | 0.00 | 57 | 1021.2 |
| 20260505225125 | 32 | 153 | 6.4 | 9.7 | 0.00 | 0.00 | 0.00 | 57 | 1021.2 |